Location: Banksville Park
(38.5557°N, 75.1182°W)
Time: 04:18:57
(UTC+00:00)

Okean 2 Rocket - Visible Passes

Search period start: 04 August 2021 00:00
Search period end: 14 August 2021 00:00
Orbit: 617 x 641 km, 82.5° (Epoch: 03 August)

Date Brightness Start Highest point End Pass type
(mag) Time Alt. Az. Time Alt. Az. Time Alt. Az.
04 Aug 3.0 07:53:18 64° SW 07:53:52 74° W 07:58:23 10° N visible
05 Aug 5.3 06:36:36 18° E 06:36:38 18° E 06:39:43 10° NE visible
05 Aug 3.8 08:13:58 35° W 08:14:24 35° WNW 08:18:34 10° N visible
06 Aug 4.4 06:57:15 36° E 06:57:15 36° E 07:01:02 10° NNE visible
06 Aug 4.7 08:34:37 18° W 08:35:04 18° WNW 08:38:12 10° NNW visible
07 Aug 3.5 07:17:53 63° NNE 07:17:53 63° NNE 07:21:46 10° N visible
08 Aug 5.9 06:01:07 12° ENE 06:01:07 12° ENE 06:02:10 10° ENE visible
08 Aug 3.7 07:38:29 45° NW 07:38:29 45° NW 07:42:08 10° N visible
09 Aug 5.3 06:21:43 22° ENE 06:21:43 22° ENE 06:24:05 10° NNE visible
09 Aug 4.6 07:59:05 24° WNW 07:59:05 24° WNW 08:02:04 10° NNW visible
10 Aug 4.6 06:42:17 34° NE 06:42:17 34° NE 06:45:03 10° NNE visible
10 Aug 5.3 08:19:40 13° WNW 08:19:40 13° WNW 08:21:07 10° NW visible
11 Aug 4.4 07:02:51 36° N 07:02:51 36° N 07:05:35 10° N visible
12 Aug 5.9 05:46:02 14° NE 05:46:02 14° NE 05:46:57 10° NE visible
12 Aug 4.8 07:23:24 25° NW 07:23:24 25° NW 07:25:46 10° N visible
13 Aug 5.5 06:06:34 21° NE 06:06:34 21° NE 06:08:14 10° NNE visible
13 Aug 5.3 07:43:56 15° NW 07:43:56 15° NW 07:45:22 10° NNW visible
